"startDT [UTC]","vpos","CH4 [ppm]","stdev(CH4) [ppm]","CO2 [ppm]","stdev(CO2) [ppm]","H2O [ppm]","stdev(H2O)","p_LGR [torr]","T_LGR [C]","mt1_LGR [us]","mt2_LGR [us]","T_ECpre [C]","T_EC1 [C]","T_EC2 [C]","p_inlet [hPa]","p_in [hPa]","p_out [hPa]","T_inlet [C]","RH_inlet [%]","dwpt_inlet [C]","T_vent [C]","RH_vent [%]","dwpt_vent [C]","flow_vent [l min-1]","flow_inlet [l min-1]","dwpt_sample [C]","T_room [C]"
2013-05-22 00:00:00,0.0,1.9062,0.0010,408.88,0.36,26.3,29.1,138.22,23.25,24.61,36.31,0.04,-272.75,-272.75,-35,548,-916,17.4,11.1,-13.3,17.7,11.3,-12.9,5.73,2.41,-26.9,23.3
2013-05-22 00:01:00,0.0,1.9066,0.0009,408.77,0.40,42.4,36.3,138.22,23.25,24.61,36.32,0.04,-272.75,-272.75,-34,548,-916,17.4,11.1,-13.2,17.7,11.3,-12.9,5.73,2.40,-26.9,23.3
2013-05-22 00:02:00,0.0,1.9065,0.0009,408.83,0.38,37.5,28.7,138.22,23.26,24.61,36.32,0.04,-272.76,-272.75,-34,548,-916,17.4,11.1,-13.2,17.7,11.3,-12.9,5.73,2.40,-26.9,23.3
2013-05-22 00:03:00,0.0,1.9070,0.0010,408.80,0.33,34.9,32.2,138.22,23.27,24.61,36.32,0.04,-272.75,-272.75,-34,548,-916,17.4,11.1,-13.3,17.7,11.2,-12.9,5.73,2.39,-26.9,23.3
2013-05-22 00:04:00,0.0,1.9067,0.0009,408.84,0.41,41.3,34.2,138.22,23.27,24.61,36.31,0.04,-272.75,-272.75,-34,548,-916,17.4,11.2,-13.2,17.7,11.3,-12.8,5.73,2.38,-26.9,23.3
2013-05-22 00:05:00,0.0,1.9067,0.0009,408.80,0.39,39.8,35.8,138.22,23.27,24.61,36.32,0.04,-272.75,-272.75,-34,548,-916,17.4,11.2,-13.2,17.7,11.3,-12.8,5.73,2.38,-26.9,23.4
2013-05-22 00:06:00,0.0,1.9070,0.0010,408.82,0.39,37.7,31.3,138.22,23.28,24.61,36.32,0.04,-272.76,-272.76,-34,548,-916,17.4,11.2,-13.1,17.7,11.3,-12.8,5.73,2.39,-26.9,23.4
2013-05-22 00:07:00,0.0,1.9068,0.0008,408.90,0.35,50.9,33.2,138.22,23.28,24.61,36.31,0.04,-272.75,-272.75,-34,548,-916,17.4,11.2,-13.1,17.7,11.4,-12.7,5.73,2.39,-26.9,23.4
2013-05-22 00:08:00,0.0,1.9068,0.0009,408.86,0.38,35.0,30.8,138.22,23.28,24.61,36.31,0.04,-272.75,-272.76,-34,548,-916,17.4,11.3,-13.0,17.7,11.5,-12.7,5.73,2.40,-26.9,23.3
2013-05-22 00:09:00,0.0,1.9067,0.0008,408.88,0.40,37.8,28.8,138.22,23.29,24.61,36.31,0.04,-272.75,-272.75,-34,548,-916,17.4,11.2,-13.1,17.7,11.4,-12.7,5.73,2.40,-26.9,23.3
2013-05-22 00:10:00,0.0,1.9070,0.0008,408.80,0.40,41.3,37.4,138.22,23.29,24.61,36.32,0.04,-272.75,-272.75,-35,548,-916,17.4,11.2,-13.2,17.7,11.3,-12.8,5.73,2.41,-26.9,23.3
2013-05-22 00:11:00,0.0,1.9065,0.0009,408.85,0.33,39.5,37.9,138.22,23.29,24.61,36.31,0.04,-272.75,-272.75,-34,548,-916,17.5,11.1,-13.2,17.7,11.3,-12.8,5.73,2.42,-26.9,23.3
2013-05-22 00:12:00,0.0,1.9065,0.0008,408.75,0.36,41.3,34.1,138.22,23.29,24.61,36.32,0.04,-272.75,-272.75,-34,548,-916,17.5,11.2,-13.1,17.7,11.3,-12.8,5.73,2.42,-26.9,23.3
2013-05-22 00:13:00,0.0,1.9062,0.0011,408.86,0.39,40.8,34.1,138.22,23.29,24.61,36.32,0.04,-272.75,-272.76,-35,548,-916,17.5,11.1,-13.2,17.7,11.3,-12.8,5.73,2.42,-26.9,23.4
2013-05-22 00:14:00,0.0,1.9060,0.0008,408.82,0.39,35.7,34.5,138.22,23.29,24.61,36.32,0.04,-272.75,-272.75,-35,548,-916,17.5,11.2,-13.0,17.7,11.4,-12.7,5.73,2.42,-26.9,23.4
2013-05-22 00:15:00,0.0,1.9064,0.0010,408.89,0.40,36.8,33.5,138.22,23.29,24.61,36.32,0.04,-272.76,-272.75,-34,548,-916,17.5,11.4,-12.9,17.7,11.5,-12.5,5.73,2.42,-26.9,23.4
2013-05-22 00:16:00,0.0,1.9063,0.0009,408.81,0.37,41.5,33.4,138.22,23.30,24.61,36.32,0.04,-272.76,-272.76,-35,548,-916,17.5,11.3,-12.9,17.8,11.5,-12.6,5.73,2.40,-26.9,23.4
2013-05-22 00:17:00,0.0,1.9068,0.0011,408.82,0.37,42.4,38.0,138.22,23.30,24.61,36.32,0.04,-272.75,-272.75,-35,548,-916,17.5,11.3,-12.9,17.8,11.5,-12.5,5.73,2.39,-26.8,23.4
2013-05-22 00:18:00,0.0,1.9066,0.0011,408.95,0.33,48.3,36.6,138.22,23.31,24.61,36.31,0.04,-272.75,-272.75,-35,548,-916,17.5,11.3,-12.9,17.8,11.5,-12.5,5.73,2.39,-26.8,23.4
2013-05-22 00:19:00,0.0,1.9072,0.0009,408.81,0.33,48.8,34.9,138.22,23.32,24.61,36.32,0.04,-272.75,-272.75,-35,548,-916,17.5,11.3,-12.9,17.8,11.5,-12.6,5.73,2.38,-26.8,23.4
2013-05-22 00:20:00,0.0,1.9073,0.0009,408.89,0.38,37.4,30.5,138.22,23.32,24.61,36.31,0.04,-272.75,-272.75,-35,548,-916,17.5,11.3,-13.0,17.8,11.5,-12.6,5.73,2.38,-26.8,23.4
2013-05-22 00:21:00,0.0,1.9069,0.0007,408.85,0.38,43.3,35.8,138.22,23.32,24.61,36.32,0.04,-272.75,-272.75,-35,548,-916,17.6,11.4,-12.8,17.8,11.6,-12.4,5.73,2.38,-26.8,23.4
2013-05-22 00:22:00,0.0,1.9073,0.0010,408.96,0.38,43.2,33.5,138.22,23.32,24.61,36.31,0.23,-271.30,-271.83,-35,549,-916,17.6,11.4,-12.8,17.8,11.6,-12.5,5.42,2.49,-31.0,23.4
2013-05-22 00:23:00,0.0,1.9077,0.0009,408.85,0.37,38.0,32.1,138.22,23.33,24.61,36.32,0.04,-272.76,-272.76,-35,548,-916,17.6,11.4,-12.8,17.8,11.6,-12.4,5.73,2.40,-26.8,23.4
2013-05-22 00:24:00,0.0,1.9073,0.0008,408.82,0.42,47.6,32.3,138.22,23.33,24.61,36.31,0.04,-272.75,-272.75,-35,549,-916,17.6,11.4,-12.8,17.8,11.6,-12.4,5.73,2.42,-26.9,23.4
2013-05-22 00:25:00,0.0,1.9074,0.0009,408.97,0.32,42.1,32.5,138.22,23.34,24.62,36.31,0.04,-272.75,-272.76,-35,548,-916,17.6,11.5,-12.7,17.8,11.6,-12.4,5.73,2.42,-26.8,23.4
2013-05-22 00:26:00,0.0,1.9073,0.0010,408.87,0.37,46.9,39.8,138.22,23.34,24.61,36.32,0.04,-272.75,-272.75,-35,548,-916,17.6,11.4,-12.8,17.8,11.6,-12.4,5.73,2.43,-26.8,23.3
2013-05-22 00:27:00,0.0,1.9075,0.0009,408.92,0.37,36.7,31.7,138.22,23.34,24.61,36.31,0.04,-272.75,-272.76,-35,549,-916,17.6,11.4,-12.8,17.8,11.6,-12.5,5.73,2.42,-26.8,23.3
2013-05-22 00:28:00,0.0,1.9071,0.0010,409.02,0.34,43.1,28.6,138.22,23.34,24.61,36.31,0.04,-272.75,-272.75,-35,549,-916,17.6,11.4,-12.8,17.8,11.5,-12.5,5.73,2.41,-26.8,23.4
2013-05-22 00:29:00,0.0,1.9069,0.0008,408.98,0.40,39.4,34.4,138.22,23.33,24.61,36.31,0.04,-272.75,-272.76,-35,549,-916,17.6,11.3,-13.0,17.8,11.6,-12.4,5.73,2.41,-26.8,23.4
2013-05-22 00:30:00,0.0,1.9072,0.0008,408.86,0.35,36.9,29.6,138.22,23.33,24.61,36.31,0.04,-272.76,-272.75,-35,549,-916,17.6,11.4,-12.8,17.8,11.6,-12.4,5.73,2.39,-26.8,23.4
2013-05-22 00:31:00,0.0,1.9073,0.0013,408.92,0.33,34.3,25.8,138.22,23.33,24.61,36.31,0.04,-272.75,-272.75,-35,549,-916,17.6,11.5,-12.7,17.8,11.7,-12.3,5.73,2.39,-26.8,23.4
2013-05-22 00:32:00,0.0,1.9080,0.0016,408.85,0.31,43.4,26.8,138.22,23.33,24.61,36.32,0.04,-272.76,-272.75,-35,549,-916,17.6,11.4,-12.8,17.8,11.6,-12.4,5.73,2.38,-26.8,23.4
2013-05-22 00:33:00,0.0,1.9068,0.0007,409.00,0.31,43.3,34.3,138.22,23.34,24.61,36.31,0.04,-272.75,-272.75,-35,549,-916,17.6,11.3,-12.8,17.8,11.5,-12.4,5.73,2.38,-26.8,23.4
2013-05-22 00:34:00,0.0,1.9068,0.0008,408.97,0.35,42.5,35.4,138.22,23.34,24.61,36.31,0.04,-272.75,-272.76,-35,549,-916,17.6,11.4,-12.7,17.8,11.6,-12.4,5.73,2.39,-26.8,23.4
2013-05-22 00:35:00,0.0,1.9065,0.0009,408.81,0.37,46.7,34.3,138.22,23.35,24.61,36.32,0.04,-272.75,-272.76,-35,549,-916,17.6,11.5,-12.7,17.8,11.7,-12.3,5.73,2.39,-26.8,23.4
2013-05-22 00:36:00,0.0,1.9062,0.0008,408.93,0.40,41.6,33.4,138.22,23.35,24.61,36.32,0.04,-272.75,-272.76,-35,549,-916,17.6,11.4,-12.8,17.8,11.6,-12.4,5.73,2.40,-26.8,23.4
2013-05-22 00:37:00,0.0,1.9067,0.0009,408.89,0.36,37.0,26.5,138.21,23.35,24.61,36.31,0.04,-272.75,-272.76,-35,549,-916,17.6,11.4,-12.8,17.8,11.6,-12.4,5.73,2.41,-26.8,23.4
2013-05-22 00:38:00,0.0,1.9072,0.0010,408.90,0.40,46.9,33.2,138.22,23.36,24.61,36.31,0.04,-272.75,-272.75,-35,549,-916,17.6,11.4,-12.7,17.8,11.6,-12.3,5.73,2.42,-26.7,23.4
2013-05-22 00:39:00,0.0,1.9069,0.0009,408.96,0.36,50.9,30.9,138.22,23.36,24.61,36.31,0.04,-272.75,-272.75,-35,549,-916,17.6,11.5,-12.6,17.9,11.7,-12.2,5.73,2.43,-26.8,23.5
2013-05-22 00:40:00,0.0,1.9070,0.0009,408.90,0.34,52.5,33.2,138.22,23.37,24.61,36.32,0.04,-272.75,-272.76,-35,549,-916,17.6,11.5,-12.7,17.9,11.7,-12.3,5.73,2.41,-26.8,23.4
2013-05-22 00:41:00,0.0,1.9073,0.0010,409.00,0.35,51.6,30.0,138.22,23.37,24.61,36.32,0.04,-272.75,-272.76,-35,549,-916,17.6,11.4,-12.7,17.9,11.6,-12.3,5.73,2.41,-26.8,23.4
2013-05-22 00:42:00,0.0,1.9067,0.0009,408.87,0.38,47.5,32.8,138.22,23.37,24.61,36.32,0.04,-272.75,-272.76,-35,549,-916,17.7,11.4,-12.7,17.9,11.6,-12.3,5.73,2.40,-26.7,23.5
2013-05-22 00:43:00,0.0,1.9068,0.0008,408.89,0.37,41.1,26.8,138.21,23.37,24.61,36.31,0.04,-272.76,-272.75,-35,549,-916,17.7,11.5,-12.6,17.9,11.7,-12.2,5.73,2.38,-26.8,23.5
2013-05-22 00:44:00,0.0,1.9070,0.0009,408.79,0.35,55.9,31.7,138.22,23.38,24.61,36.32,0.04,-272.76,-272.76,-35,549,-916,17.7,11.5,-12.6,17.9,11.7,-12.2,5.73,2.38,-26.8,23.5
2013-05-22 00:45:00,0.0,1.9071,0.0011,408.84,0.44,41.0,33.4,138.22,23.38,24.61,36.32,0.04,-272.75,-272.75,-35,549,-916,17.7,11.5,-12.7,17.9,11.6,-12.3,5.73,2.37,-26.7,23.4
2013-05-22 00:46:00,0.0,1.9069,0.0010,408.78,0.35,46.3,33.4,138.21,23.38,24.61,36.32,0.04,-272.75,-272.76,-35,549,-916,17.7,11.5,-12.6,17.9,11.8,-12.2,5.73,2.39,-26.7,23.5
2013-05-22 00:47:00,0.0,1.9070,0.0007,408.92,0.38,49.6,33.7,138.22,23.39,24.61,36.32,0.04,-272.75,-272.76,-35,549,-916,17.7,11.5,-12.6,17.9,11.7,-12.2,5.73,2.40,-26.7,23.5
2013-05-22 00:48:00,0.0,1.9073,0.0009,409.00,0.35,48.9,36.6,138.22,23.39,24.61,36.32,0.04,-272.75,-272.75,-35,549,-916,17.7,11.5,-12.6,17.9,11.7,-12.3,5.73,2.41,-26.7,23.5
2013-05-22 00:49:00,0.0,1.9073,0.0008,408.86,0.36,44.0,30.7,138.22,23.40,24.61,36.32,0.04,-272.75,-272.76,-35,549,-916,17.7,11.6,-12.5,17.9,11.8,-12.2,5.73,2.42,-26.7,23.5
2013-05-22 00:50:00,0.0,1.9071,0.0009,408.86,0.41,42.5,33.1,138.22,23.40,24.61,36.32,0.04,-272.76,-272.76,-35,549,-916,17.7,11.5,-12.6,17.9,11.7,-12.2,5.73,2.42,-26.8,23.4
2013-05-22 00:51:00,0.0,1.9070,0.0009,409.01,0.41,44.3,35.7,138.21,23.40,24.61,36.31,0.04,-272.75,-272.76,-35,549,-916,17.7,11.5,-12.6,17.9,11.7,-12.2,5.73,2.42,-26.7,23.5
2013-05-22 00:52:00,0.0,1.9068,0.0009,408.94,0.34,45.0,35.2,138.21,23.40,24.61,36.31,0.04,-272.75,-272.75,-35,549,-916,17.7,11.5,-12.6,17.9,11.7,-12.2,5.73,2.42,-26.8,23.5
2013-05-22 00:53:00,0.0,1.9071,0.0009,408.94,0.35,53.6,36.2,138.22,23.40,24.61,36.32,0.04,-272.76,-272.75,-35,549,-916,17.7,11.5,-12.6,17.9,11.7,-12.2,5.73,2.40,-26.7,23.5
2013-05-22 00:54:00,0.0,1.9070,0.0009,409.01,0.35,41.5,30.9,138.21,23.40,24.61,36.31,0.04,-272.75,-272.75,-35,549,-916,17.7,11.5,-12.6,17.9,11.7,-12.2,5.73,2.38,-26.7,23.5
2013-05-22 00:55:00,0.0,1.9081,0.0008,408.86,0.38,50.2,33.3,138.22,23.41,24.61,36.31,0.04,-272.75,-272.76,-35,549,-916,17.7,11.6,-12.5,17.9,11.8,-12.1,5.73,2.38,-26.7,23.5
2013-05-22 00:56:00,0.0,1.9077,0.0009,409.00,0.35,51.9,34.9,138.21,23.41,24.61,36.31,0.04,-272.75,-272.76,-35,549,-916,17.7,11.6,-12.5,17.9,11.8,-12.1,5.73,2.37,-26.7,23.5
2013-05-22 00:57:00,0.0,1.9073,0.0010,408.97,0.32,49.3,35.7,138.21,23.42,24.61,36.31,0.04,-272.76,-272.75,-35,549,-916,17.7,11.7,-12.4,18.0,11.9,-12.0,5.73,2.38,-26.7,23.5
2013-05-22 00:58:00,0.0,1.9071,0.0009,408.95,0.36,46.7,36.5,138.22,23.41,24.61,36.32,0.04,-272.75,-272.75,-35,549,-916,17.7,11.6,-12.5,18.0,11.8,-12.1,5.73,2.40,-26.7,23.5
2013-05-22 00:59:00,0.0,1.9073,0.0009,408.85,0.32,50.0,36.1,138.21,23.42,24.61,36.32,0.04,-272.76,-272.75,-35,549,-916,17.7,11.6,-12.5,18.0,11.8,-12.0,5.73,2.41,-26.7,23.5
2013-05-22 01:00:00,0.0,1.9070,0.0008,408.89,0.38,56.0,37.2,138.22,23.42,24.61,36.32,0.04,-272.75,-272.76,-35,549,-916,17.7,11.6,-12.4,18.0,11.8,-12.0,5.73,2.42,-26.7,23.5
2013-05-22 01:01:00,0.0,1.9071,0.0010,408.93,0.36,52.2,32.1,138.21,23.43,24.61,36.32,0.04,-272.75,-272.75,-35,550,-916,17.8,11.5,-12.5,18.0,11.7,-12.2,5.73,2.43,-26.7,23.5
2013-05-22 01:02:00,0.0,1.9070,0.0008,408.97,0.39,53.2,36.4,138.22,23.43,24.61,36.32,0.04,-272.75,-272.75,-35,549,-916,17.8,11.5,-12.5,18.0,11.8,-12.1,5.73,2.41,-26.7,23.5
2013-05-22 01:03:00,0.0,1.9076,0.0009,409.02,0.33,49.7,36.2,138.21,23.43,24.61,36.31,0.04,-272.76,-272.76,-35,549,-916,17.8,11.5,-12.5,18.0,11.7,-12.1,5.73,2.40,-26.7,23.5
2013-05-22 01:04:00,0.0,1.9081,0.0008,408.96,0.34,52.4,36.3,138.22,23.44,24.61,36.31,0.04,-272.76,-272.75,-35,550,-916,17.8,11.5,-12.5,18.0,11.7,-12.1,5.73,2.39,-26.7,23.5
2013-05-22 01:05:00,0.0,1.9081,0.0009,408.98,0.32,57.0,38.1,138.21,23.45,24.61,36.31,0.04,-272.75,-272.75,-35,549,-916,17.8,11.5,-12.5,18.0,11.8,-12.1,5.73,2.38,-26.7,23.5
2013-05-22 01:06:00,0.0,1.9084,0.0009,408.83,0.43,48.6,32.3,138.21,23.45,24.61,36.32,0.04,-272.75,-272.76,-35,549,-916,17.8,11.6,-12.4,18.0,11.8,-12.0,5.73,2.37,-26.7,23.5
2013-05-22 01:07:00,0.0,1.9077,0.0008,408.93,0.36,47.1,30.4,138.21,23.45,24.61,36.31,0.04,-272.76,-272.75,-35,550,-916,17.8,11.6,-12.4,18.0,11.9,-12.0,5.73,2.38,-26.7,23.5
2013-05-22 01:08:00,0.0,1.9081,0.0008,408.92,0.36,66.8,39.3,138.21,23.46,24.61,36.32,0.04,-272.75,-272.75,-35,550,-916,17.8,11.7,-12.3,18.0,11.9,-11.9,5.73,2.38,-26.7,23.5
2013-05-22 01:09:00,0.0,1.9083,0.0007,408.88,0.43,54.3,31.8,138.21,23.46,24.61,36.31,0.04,-272.75,-272.75,-35,549,-915,17.8,11.6,-12.4,18.0,11.8,-12.0,5.73,2.40,-26.7,23.6
2013-05-22 01:10:00,0.0,1.9083,0.0007,408.97,0.36,60.5,34.6,138.21,23.47,24.61,36.32,0.04,-272.76,-272.76,-35,549,-916,17.8,11.6,-12.4,18.0,11.8,-12.0,5.73,2.41,-26.7,23.6
2013-05-22 01:11:00,0.0,1.9085,0.0010,408.96,0.38,64.9,37.9,138.21,23.47,24.61,36.32,0.04,-272.75,-272.75,-35,550,-916,17.8,11.6,-12.4,18.0,11.8,-12.0,5.73,2.42,-26.7,23.5
2013-05-22 01:12:00,0.0,1.9078,0.0010,408.97,0.34,66.2,35.9,138.21,23.48,24.61,36.32,0.04,-272.75,-272.75,-35,550,-916,17.8,11.7,-12.3,18.0,11.9,-11.9,5.73,2.43,-26.7,23.5
2013-05-22 01:13:00,0.0,1.9083,0.0009,408.85,0.37,68.1,35.8,138.21,23.49,24.61,36.32,0.04,-272.76,-272.76,-35,550,-915,17.8,11.7,-12.3,18.0,11.9,-11.9,5.73,2.42,-26.7,23.6
2013-05-22 01:14:00,0.0,1.9084,0.0009,408.98,0.35,66.2,36.2,138.21,23.49,24.61,36.31,0.04,-272.75,-272.75,-35,550,-915,17.8,11.6,-12.3,18.0,11.8,-12.0,5.73,2.41,-26.7,23.5
2013-05-22 01:15:00,0.0,1.9079,0.0009,409.06,0.39,63.2,38.3,138.21,23.49,24.61,36.31,0.04,-272.75,-272.75,-35,550,-915,17.8,11.6,-12.4,18.0,11.8,-12.0,5.73,2.39,-26.6,23.5
2013-05-22 01:16:00,0.0,1.9080,0.0009,408.94,0.31,68.9,40.5,138.21,23.49,24.61,36.31,0.04,-272.76,-272.76,-35,550,-915,17.8,11.6,-12.4,18.0,11.8,-12.0,5.73,2.37,-26.6,23.5
2013-05-22 01:17:00,0.0,1.9077,0.0009,408.87,0.36,62.9,34.9,138.21,23.50,24.61,36.32,0.04,-272.76,-272.76,-35,550,-915,17.8,11.7,-12.3,18.0,11.9,-11.9,5.73,2.36,-26.6,23.5
2013-05-22 01:18:00,0.0,1.9074,0.0009,409.01,0.39,69.6,31.3,138.21,23.50,24.61,36.31,0.04,-272.75,-272.75,-35,550,-915,17.8,11.7,-12.2,18.1,11.9,-11.8,5.73,2.38,-26.6,23.5
2013-05-22 01:19:00,0.0,1.9073,0.0008,408.95,0.35,56.8,35.6,138.21,23.50,24.61,36.32,0.04,-272.75,-272.75,-35,550,-915,17.8,11.8,-12.2,18.1,12.0,-11.8,5.73,2.38,-26.6,23.6
2013-05-22 01:20:00,0.0,1.9072,0.0008,408.92,0.41,59.9,40.0,138.21,23.50,24.61,36.31,0.04,-272.75,-272.75,-35,550,-916,17.8,11.8,-12.1,18.1,12.1,-11.7,5.73,2.40,-26.6,23.6
2013-05-22 01:21:00,0.0,1.9073,0.0008,408.98,0.40,63.7,41.3,138.21,23.51,24.61,36.32,0.04,-272.75,-272.76,-35,550,-916,17.8,11.7,-12.3,18.0,11.9,-11.9,5.73,2.42,-26.6,23.7
2013-05-22 01:22:00,0.0,1.9075,0.0010,409.05,0.35,64.7,36.8,138.21,23.51,24.61,36.31,0.04,-272.75,-272.75,-35,550,-915,17.8,11.7,-12.3,18.1,11.9,-11.9,5.73,2.43,-26.6,23.6
2013-05-22 01:23:00,0.0,1.9072,0.0008,408.96,0.32,70.0,30.0,138.21,23.52,24.61,36.32,0.04,-272.76,-272.75,-35,550,-915,17.8,11.8,-12.2,18.1,12.0,-11.8,5.73,2.42,-26.6,23.6
2013-05-22 01:24:00,0.0,1.9077,0.0007,408.92,0.39,69.5,36.6,138.21,23.53,24.61,36.32,0.04,-272.76,-272.75,-35,550,-915,17.8,11.8,-12.1,18.1,12.0,-11.7,5.73,2.41,-26.6,23.6
2013-05-22 01:25:00,0.0,1.9073,0.0009,409.10,0.35,71.3,36.3,138.21,23.53,24.61,36.32,0.04,-272.75,-272.75,-35,550,-915,17.9,11.7,-12.3,18.1,11.9,-11.9,5.73,2.38,-26.6,23.6
2013-05-22 01:26:00,0.0,1.9072,0.0008,408.97,0.39,65.9,33.6,138.21,23.54,24.61,36.32,0.04,-272.75,-272.75,-35,550,-915,17.9,11.7,-12.2,18.1,11.9,-11.8,5.73,2.37,-26.6,23.6
2013-05-22 01:27:00,0.0,1.9071,0.0008,408.94,0.34,65.9,33.7,138.21,23.54,24.61,36.32,0.04,-272.75,-272.76,-35,550,-915,17.9,11.8,-12.1,18.1,12.0,-11.7,5.73,2.37,-26.6,23.6
2013-05-22 01:28:00,0.0,1.9072,0.0010,408.87,0.34,69.3,32.9,138.21,23.54,24.61,36.32,0.04,-272.75,-272.75,-35,550,-915,17.9,11.9,-12.1,18.1,12.1,-11.7,5.73,2.37,-26.6,23.6
2013-05-22 01:29:00,0.0,1.9068,0.0009,408.99,0.36,53.4,35.2,138.21,23.54,24.61,36.31,0.04,-272.75,-272.75,-35,550,-916,17.9,11.8,-12.1,18.1,12.1,-11.7,5.73,2.39,-26.6,23.6
2013-05-22 01:30:00,0.0,1.9066,0.0009,409.04,0.40,59.2,34.7,138.21,23.54,24.61,36.32,0.04,-272.75,-272.76,-35,550,-915,17.9,11.7,-12.2,18.1,12.0,-11.8,5.73,2.41,-26.6,23.6
2013-05-22 01:31:00,0.0,1.9065,0.0009,409.05,0.41,65.5,34.4,138.21,23.54,24.62,36.31,0.04,-272.75,-272.75,-35,550,-915,17.9,11.7,-12.2,18.1,11.9,-11.8,5.73,2.42,-26.6,23.6
2013-05-22 01:32:00,0.0,1.9068,0.0008,408.89,0.36,74.5,33.5,138.21,23.55,24.61,36.32,0.04,-272.75,-272.75,-35,550,-915,17.9,11.9,-12.0,18.1,12.1,-11.7,5.73,2.42,-26.6,23.6
2013-05-22 01:33:00,0.0,1.9072,0.0010,408.98,0.36,68.7,38.3,138.21,23.55,24.61,36.32,0.04,-272.75,-272.75,-35,550,-915,17.9,11.8,-12.2,18.1,12.0,-11.8,5.73,2.41,-26.6,23.6
2013-05-22 01:34:00,0.0,1.9071,0.0011,408.95,0.36,63.3,38.5,138.21,23.56,24.61,36.32,0.04,-272.75,-272.75,-35,550,-915,17.9,11.9,-12.0,18.1,12.1,-11.6,5.73,2.40,-26.6,23.7
2013-05-22 01:35:00,0.0,1.9070,0.0009,409.04,0.43,63.3,31.1,138.21,23.56,24.61,36.31,0.04,-272.75,-272.75,-35,550,-915,17.9,11.9,-12.0,18.1,12.1,-11.7,5.73,2.37,-26.5,23.6
2013-05-22 01:36:00,0.0,1.9068,0.0011,408.96,0.33,59.3,34.1,138.21,23.56,24.61,36.31,0.04,-272.75,-272.76,-35,550,-915,17.9,11.8,-12.1,18.1,12.0,-11.7,5.73,2.36,-26.5,23.7
2013-05-22 01:37:00,0.0,1.9072,0.0010,409.13,0.36,63.8,29.2,138.21,23.56,24.61,36.31,0.04,-272.75,-272.76,-35,550,-916,17.9,11.9,-12.0,18.1,12.1,-11.6,5.73,2.37,-26.5,23.6
2013-05-22 01:38:00,0.0,1.9065,0.0008,408.91,0.44,75.0,33.9,138.21,23.56,24.61,36.32,0.04,-272.75,-272.75,-35,550,-915,18.0,11.8,-12.1,18.1,12.0,-11.7,5.73,2.40,-26.5,23.7
2013-05-22 01:39:00,0.0,1.9063,0.0008,408.99,0.39,67.8,34.1,138.21,23.56,24.61,36.31,0.04,-272.75,-272.75,-35,550,-915,17.9,11.7,-12.1,18.2,12.0,-11.8,5.73,2.41,-26.5,23.7
2013-05-22 01:40:00,0.0,1.9065,0.0009,409.07,0.33,54.6,37.9,138.21,23.57,24.61,36.31,0.04,-272.76,-272.75,-35,550,-915,18.0,11.7,-12.2,18.2,11.9,-11.8,5.73,2.42,-26.5,23.7
2013-05-22 01:41:00,0.0,1.9070,0.0009,408.97,0.38,67.8,33.7,138.21,23.57,24.61,36.32,0.04,-272.75,-272.75,-35,550,-915,18.0,11.8,-12.1,18.2,12.0,-11.7,5.73,2.43,-26.5,23.6
2013-05-22 01:42:00,0.0,1.9069,0.0009,409.04,0.38,69.2,32.7,138.21,23.58,24.61,36.32,0.04,-272.75,-272.75,-35,550,-915,18.0,11.8,-12.1,18.2,12.0,-11.7,5.73,2.41,-26.5,23.7
2013-05-22 01:43:00,0.0,1.9068,0.0011,409.05,0.38,66.2,36.9,138.21,23.59,24.61,36.32,0.04,-272.75,-272.76,-35,550,-915,17.9,11.7,-12.2,18.2,11.9,-11.8,5.73,2.38,-26.5,23.7
2013-05-22 01:44:00,0.0,1.9069,0.0008,409.10,0.36,59.6,32.9,138.21,23.59,24.61,36.31,0.04,-272.75,-272.75,-35,550,-915,18.0,11.7,-12.2,18.2,11.9,-11.8,5.73,2.37,-26.5,23.8
2013-05-22 01:45:00,0.0,1.9065,0.0008,408.89,0.39,67.9,32.1,138.21,23.59,24.61,36.32,0.04,-272.75,-272.75,-35,550,-915,18.0,11.7,-12.1,18.2,11.9,-11.8,5.73,2.36,-26.5,23.8
2013-05-22 01:46:00,0.0,1.9064,0.0008,408.85,0.39,65.4,38.0,138.21,23.59,24.61,36.32,0.04,-272.75,-272.75,-35,550,-915,17.9,11.8,-12.1,18.2,12.0,-11.7,5.73,2.38,-26.5,23.8
2013-05-22 01:47:00,0.0,1.9068,0.0009,409.07,0.41,62.0,39.8,138.21,23.59,24.61,36.31,0.04,-272.76,-272.76,-35,550,-915,17.9,11.9,-12.0,18.2,12.1,-11.6,5.73,2.40,-26.5,23.8
2013-05-22 01:48:00,0.0,1.9065,0.0008,409.09,0.38,60.9,34.0,138.21,23.59,24.61,36.31,0.04,-272.75,-272.75,-35,550,-915,18.0,12.0,-11.9,18.2,12.2,-11.5,5.73,2.42,-26.5,23.8
2013-05-22 01:49:00,0.0,1.9067,0.0007,409.15,0.42,70.9,36.7,138.21,23.60,24.61,36.30,0.04,-272.75,-272.75,-35,550,-915,18.0,11.8,-12.0,18.2,12.1,-11.6,5.73,2.43,-26.5,23.7
2013-05-22 01:50:00,0.0,1.9068,0.0011,409.04,0.35,66.3,32.4,138.21,23.61,24.61,36.31,0.04,-272.76,-272.76,-35,550,-915,18.0,11.8,-12.1,18.2,12.0,-11.7,5.73,2.42,-26.5,23.7
2013-05-22 01:51:00,0.0,1.9063,0.0007,409.01,0.38,74.8,36.6,138.21,23.61,24.61,36.32,0.04,-272.75,-272.75,-35,550,-915,18.0,11.7,-12.1,18.2,11.9,-11.8,5.73,2.38,-26.5,23.7
2013-05-22 01:52:00,0.0,1.9072,0.0009,408.99,0.34,75.5,41.9,138.21,23.62,24.61,36.31,0.04,-272.76,-272.75,-35,550,-915,18.0,11.8,-12.0,18.2,12.0,-11.7,5.73,2.36,-26.4,23.7
2013-05-22 01:53:00,0.0,1.9068,0.0009,409.02,0.42,78.1,31.0,138.21,23.62,24.61,36.31,0.04,-272.75,-272.75,-35,550,-915,18.0,12.0,-11.8,18.2,12.3,-11.4,5.73,2.36,-26.4,23.7
2013-05-22 01:54:00,0.0,1.9064,0.0010,408.90,0.40,71.3,34.8,138.21,23.62,24.61,36.32,0.04,-272.76,-272.76,-35,551,-915,18.0,11.9,-12.0,18.2,12.1,-11.6,5.73,2.37,-26.5,23.6
2013-05-22 01:55:00,0.0,1.9066,0.0008,408.99,0.39,69.5,32.1,138.21,23.62,24.61,36.31,0.04,-272.75,-272.75,-35,550,-915,18.0,11.9,-11.9,18.2,12.1,-11.5,5.73,2.40,-26.4,23.6
2013-05-22 01:56:00,0.0,1.9064,0.0009,408.99,0.37,69.8,40.4,138.21,23.63,24.61,36.31,0.04,-272.75,-272.76,-35,551,-915,18.0,11.9,-11.9,18.2,12.2,-11.5,5.73,2.42,-26.4,23.6
2013-05-22 01:57:00,0.0,1.9066,0.0009,408.98,0.32,64.7,36.1,138.21,23.63,24.61,36.31,0.04,-272.76,-272.76,-35,551,-915,18.0,11.9,-11.9,18.2,12.2,-11.5,5.73,2.42,-26.4,23.7
2013-05-22 01:58:00,0.0,1.9066,0.0009,409.08,0.39,66.6,33.9,138.21,23.63,24.61,36.31,0.04,-272.75,-272.76,-35,551,-915,18.0,12.0,-11.8,18.2,12.2,-11.4,5.73,2.42,-26.4,23.7
2013-05-22 01:59:00,0.0,1.9065,0.0008,408.91,0.39,68.4,37.7,138.21,23.64,24.61,36.32,0.04,-272.75,-272.75,-35,551,-915,18.0,11.9,-11.9,18.2,12.1,-11.5,5.73,2.39,-26.4,23.7
2013-05-22 02:00:00,0.0,1.9065,0.0009,409.09,0.34,65.9,34.4,138.21,23.64,24.61,36.31,0.04,-272.76,-272.76,-35,551,-915,18.1,11.8,-12.0,18.2,12.0,-11.6,5.73,2.36,-26.4,23.7
2013-05-22 02:01:00,0.0,1.9066,0.0009,409.01,0.39,68.3,37.6,138.21,23.65,24.61,36.31,0.04,-272.75,-272.75,-35,551,-915,18.1,11.9,-11.9,18.2,12.1,-11.5,5.73,2.36,-26.4,23.7
2013-05-22 02:02:00,0.0,1.9074,0.0010,408.96,0.38,67.9,34.9,138.21,23.65,24.61,36.32,0.04,-272.75,-272.75,-35,551,-915,18.1,12.0,-11.8,18.2,12.2,-11.5,5.73,2.38,-26.4,23.7
2013-05-22 02:03:00,0.0,1.9075,0.0008,408.97,0.41,66.5,35.8,138.21,23.66,24.61,36.31,0.04,-272.75,-272.75,-35,551,-915,18.1,12.0,-11.7,18.3,12.3,-11.4,5.73,2.41,-26.4,23.7
2013-05-22 02:04:00,0.0,1.9069,0.0010,409.06,0.32,72.6,33.6,138.21,23.67,24.61,36.32,0.04,-272.76,-272.76,-35,551,-915,18.1,11.8,-12.0,18.3,12.0,-11.6,5.73,2.43,-26.4,23.7
2013-05-22 02:05:00,0.0,1.9071,0.0009,409.11,0.38,72.2,39.0,138.21,23.67,24.61,36.31,0.04,-272.76,-272.75,-35,551,-915,18.1,11.8,-12.0,18.3,12.0,-11.6,5.73,2.42,-26.4,23.7
2013-05-22 02:06:00,0.0,1.9076,0.0010,409.04,0.37,78.0,33.0,138.21,23.68,24.61,36.31,0.04,-272.75,-272.75,-35,551,-915,18.1,11.8,-11.9,18.3,12.0,-11.6,5.73,2.40,-26.4,23.7
2013-05-22 02:07:00,0.0,1.9078,0.0007,408.93,0.37,73.2,33.6,138.21,23.69,24.61,36.32,0.04,-272.76,-272.75,-35,551,-915,18.1,11.9,-11.9,18.3,12.1,-11.5,5.73,2.37,-26.4,23.7
2013-05-22 02:08:00,0.0,1.9074,0.0008,409.04,0.42,73.6,40.5,138.21,23.69,24.62,36.31,0.04,-272.75,-272.76,-35,551,-915,18.1,11.8,-12.0,18.3,12.0,-11.6,5.73,2.36,-26.4,23.7
2013-05-22 02:09:00,0.0,1.9082,0.0010,409.13,0.34,89.8,38.7,138.21,23.70,24.61,36.31,0.04,-272.75,-272.75,-35,551,-915,18.1,11.7,-12.1,18.3,11.9,-11.7,5.73,2.36,-26.4,23.7
2013-05-22 02:10:00,0.0,1.9082,0.0009,409.06,0.40,86.5,34.9,138.21,23.71,24.61,36.32,0.04,-272.75,-272.76,-35,551,-915,18.1,11.7,-12.0,18.3,12.0,-11.6,5.73,2.40,-26.3,23.7
2013-05-22 02:11:00,0.0,1.9080,0.0006,409.06,0.37,89.2,35.8,138.21,23.72,24.61,36.32,0.04,-272.75,-272.76,-35,551,-915,18.1,11.9,-11.9,18.3,12.1,-11.5,5.73,2.42,-26.4,23.7
2013-05-22 02:12:00,0.0,1.9088,0.0010,409.05,0.41,79.6,37.5,138.21,23.72,24.61,36.31,0.04,-272.75,-272.75,-35,551,-915,18.1,11.9,-11.9,18.3,12.1,-11.5,5.73,2.43,-26.3,23.8
2013-05-22 02:13:00,0.0,1.9086,0.0008,409.16,0.36,97.6,37.5,138.21,23.73,24.61,36.31,0.04,-272.76,-272.76,-35,551,-915,18.2,11.9,-11.8,18.3,12.2,-11.4,5.73,2.41,-26.3,23.7
2013-05-22 02:14:00,0.0,1.9085,0.0008,409.03,0.31,94.8,35.9,138.21,23.74,24.61,36.31,0.04,-272.75,-272.75,-35,551,-915,18.2,11.9,-11.8,18.3,12.2,-11.4,5.73,2.38,-26.3,23.8
2013-05-22 02:15:00,0.0,1.9091,0.0008,408.93,0.45,87.1,39.3,138.21,23.75,24.61,36.32,0.04,-272.75,-272.75,-35,551,-915,18.2,11.9,-11.8,18.3,12.2,-11.4,5.73,2.36,-26.3,23.8
2013-05-22 02:16:00,0.0,1.9090,0.0009,408.96,0.37,93.2,33.8,138.20,23.75,24.61,36.31,0.04,-272.75,-272.75,-35,551,-915,18.2,12.0,-11.7,18.3,12.2,-11.3,5.73,2.36,-26.3,23.8